Tracking 30685 objects as of 17-Jun-2025
HD Live streaming from Space Station
objects crossing your sky now

HULIANWANG DIGUI-30

Track HULIANWANG DIGUI-30 now!
10-day predictions


NORAD ID: 64283
Int'l Code: 2025-121A
Perigee: 1,003.9 km
Apogee: 1,018.3 km
Inclination: 86.5 °
Period: 105.2 minutes
Semi major axis: 7382 km
RCS: Unknown
Launch date: June 5, 2025
Source: People's Republic of China (PRC)
Launch site: Taiyaun Space Center, China (TSC)
Your satellite tracking list
Your tracking list is empty




NASA's NSSDC Master Catalog

Two Line Element Set (TLE):
1 64283U 25121A   25167.87771376 -.00000156  00000-0 -20081-3 0  9999
2 64283  86.4996 138.6251 0009738 186.3787 173.7250 13.68781200  1518
Source of the keplerian elements: AFSPC